When you browse on this site, cookies collect data to enhance your experience and personalize the content and advertising you see.
Visit our Privacy Policy to learn more. By continuing to use the site, you agree to this use of cookies and data.
  • In Hungary
  • List of Countries
  • For 7 days
  • Water Temperature
  • Weather Map
  • News
  • Weather Widgets
  • user-avatar
    Login

    Hourly Weather Staryy Kyrlay

    Today, 17 August, Saturday

    Time Temperature Precipitation Wind Pressure Humidity
    00:00 +19°C° 0.4 mm 2 mps 750 mmHg 96%
    01:00 +18°C° 0.8 mm 2 mps 750 mmHg 97%
    02:00 +18°C° 0.8 mm 2 mps 750 mmHg 97%
    03:00 +18°C° 0 mm 2 mps 751 mmHg 97%
    04:00 +18°C° 0.4 mm 2 mps 751 mmHg 97%
    05:00 +18°C° 0.4 mm 3 mps 751 mmHg 97%
    06:00 +19°C° 0.4 mm 3 mps 751 mmHg 96%
    07:00 +20°C° 0.1 mm 3 mps 751 mmHg 94%
    08:00 +21°C° 0.1 mm 3 mps 751 mmHg 91%
    09:00 +22°C° 0 mm 3 mps 751 mmHg 90%
    10:00 +22°C° 0.3 mm 3 mps 751 mmHg 91%
    11:00 +21°C° 0.3 mm 2 mps 751 mmHg 92%
    12:00 +21°C° 0.3 mm 2 mps 751 mmHg 92%
    13:00 +21°C° 0.4 mm 2 mps 751 mmHg 92%
    14:00 +21°C° 0.4 mm 2 mps 751 mmHg 91%
    15:00 +22°C° 0.4 mm 1 mps 751 mmHg 90%
    16:00 +22°C° 0 mm 1 mps 751 mmHg 92%
    17:00 +20°C° 0 mm 2 mps 751 mmHg 93%
    18:00 +20°C° 0 mm 2 mps 752 mmHg 94%
    19:00 +19°C° 0 mm 2 mps 752 mmHg 95%
    20:00 +19°C° 0 mm 2 mps 752 mmHg 95%
    21:00 +20°C° 0 mm 1 mps 752 mmHg 96%
    22:00 +19°C° 0 mm 2 mps 752 mmHg 96%
    23:00 +19°C° 0 mm 2 mps 751 mmHg 96%

    Tomorrow, 18 August, Sunday

    Time Temperature Precipitation Wind Pressure Humidity
    00:00 +19°C° 0 mm 2 mps 751 mmHg 96%
    01:00 +19°C° 0 mm 2 mps 752 mmHg 95%
    02:00 +18°C° 0 mm 2 mps 752 mmHg 94%
    03:00 +18°C° 0 mm 2 mps 752 mmHg 94%
    04:00 +19°C° 0 mm 3 mps 752 mmHg 93%
    05:00 +19°C° 0 mm 3 mps 752 mmHg 92%
    06:00 +19°C° 0 mm 4 mps 752 mmHg 91%
    07:00 +20°C° 0 mm 4 mps 752 mmHg 87%
    08:00 +22°C° 0 mm 5 mps 752 mmHg 84%
    09:00 +23°C° 0 mm 5 mps 752 mmHg 80%
    10:00 +25°C° 0 mm 5 mps 752 mmHg 77%
    11:00 +27°C° 0 mm 5 mps 752 mmHg 74%
    12:00 +28°C° 0 mm 5 mps 752 mmHg 70%
    13:00 +28°C° 0 mm 5 mps 752 mmHg 69%
    14:00 +28°C° 0 mm 4 mps 752 mmHg 68%
    15:00 +29°C° 0 mm 4 mps 752 mmHg 66%
    16:00 +27°C° 0 mm 4 mps 753 mmHg 70%
    17:00 +26°C° 0 mm 3 mps 753 mmHg 74%
    18:00 +25°C° 0 mm 3 mps 753 mmHg 78%
    19:00 +24°C° 0 mm 3 mps 753 mmHg 75%
    20:00 +24°C° 0 mm 3 mps 753 mmHg 72%
    21:00 +22°C° 0 mm 3 mps 753 mmHg 69%
    22:00 +22°C° 0 mm 3 mps 753 mmHg 66%
    23:00 +22°C° 0 mm 3 mps 753 mmHg 63%

    Day after tomorrow, 19 August, Monday

    Time Temperature Precipitation Wind Pressure Humidity
    00:00 +22°C° 0 mm 4 mps 753 mmHg 60%
    01:00 +22°C° 0 mm 4 mps 753 mmHg 59%
    02:00 +22°C° 0 mm 4 mps 753 mmHg 57%
    03:00 +22°C° 0 mm 5 mps 754 mmHg 56%
    04:00 +22°C° 0 mm 5 mps 753 mmHg 61%
    05:00 +21°C° 0 mm 5 mps 753 mmHg 67%
    06:00 +21°C° 0 mm 5 mps 753 mmHg 72%
    07:00 +22°C° 0 mm 5 mps 753 mmHg 72%
    08:00 +22°C° 0 mm 5 mps 753 mmHg 72%
    09:00 +23°C° 0 mm 6 mps 754 mmHg 72%
    10:00 +25°C° 0 mm 5 mps 754 mmHg 70%
    11:00 +25°C° 0 mm 5 mps 753 mmHg 69%
    12:00 +26°C° 0 mm 5 mps 753 mmHg 68%
    13:00 +26°C° 0 mm 4 mps 753 mmHg 70%
    14:00 +25°C° 0 mm 3 mps 754 mmHg 72%
    15:00 +25°C° 0 mm 3 mps 754 mmHg 75%
    16:00 +24°C° 0 mm 3 mps 753 mmHg 76%
    17:00 +24°C° 0 mm 3 mps 753 mmHg 77%
    18:00 +22°C° 0 mm 3 mps 753 mmHg 79%
    19:00 +22°C° 0 mm 3 mps 753 mmHg 80%
    20:00 +21°C° 0 mm 2 mps 753 mmHg 81%
    21:00 +20°C° 0 mm 2 mps 753 mmHg 82%
    22:00 +20°C° 0 mm 2 mps 754 mmHg 86%
    23:00 +19°C° 0 mm 2 mps 754 mmHg 90%

    20 August, Tuesday

    Time Temperature Precipitation Wind Pressure Humidity
    00:00 +18°C° 0 mm 3 mps 754 mmHg 94%
    01:00 +18°C° 0 mm 3 mps 754 mmHg 95%
    02:00 +17°C° 0 mm 3 mps 754 mmHg 95%
    03:00 +17°C° 0 mm 3 mps 754 mmHg 96%
    04:00 +17°C° 0 mm 3 mps 755 mmHg 95%
    05:00 +17°C° 0 mm 3 mps 755 mmHg 94%
    06:00 +17°C° 0 mm 3 mps 755 mmHg 93%
    07:00 +18°C° 0 mm 3 mps 755 mmHg 88%
    08:00 +20°C° 0 mm 3 mps 755 mmHg 83%
    09:00 +21°C° 0 mm 3 mps 755 mmHg 78%
    10:00 +21°C° 0 mm 4 mps 755 mmHg 75%
    11:00 +22°C° 0 mm 4 mps 755 mmHg 72%
    12:00 +23°C° 0 mm 4 mps 755 mmHg 69%
    13:00 +23°C° 0.1 mm 4 mps 755 mmHg 70%
    14:00 +24°C° 0.1 mm 3 mps 755 mmHg 71%
    15:00 +24°C° 0.1 mm 3 mps 755 mmHg 72%
    16:00 +24°C° 0.1 mm 3 mps 755 mmHg 75%
    17:00 +23°C° 0.1 mm 2 mps 755 mmHg 79%
    18:00 +23°C° 0.1 mm 2 mps 755 mmHg 83%
    19:00 +21°C° 0 mm 2 mps 755 mmHg 86%
    20:00 +19°C° 0 mm 2 mps 755 mmHg 89%
    21:00 +18°C° 0 mm 2 mps 755 mmHg 92%
    22:00 +18°C° 0 mm 2 mps 756 mmHg 93%
    23:00 +18°C° 0 mm 1 mps 756 mmHg 93%

    21 August, Wednesday

    Time Temperature Precipitation Wind Pressure Humidity
    00:00 +18°C° 0 mm 1 mps 756 mmHg 94%
    01:00 +18°C° 0 mm 1 mps 756 mmHg 94%
    02:00 +18°C° 0 mm 1 mps 756 mmHg 94%
    03:00 +16°C° 0 mm 1 mps 756 mmHg 94%
    04:00 +17°C° 0 mm 2 mps 756 mmHg 94%
    05:00 +17°C° 0 mm 2 mps 756 mmHg 93%
    06:00 +17°C° 0 mm 2 mps 756 mmHg 93%
    07:00 +19°C° 0 mm 2 mps 756 mmHg 87%
    08:00 +20°C° 0 mm 2 mps 757 mmHg 82%
    09:00 +23°C° 0 mm 2 mps 757 mmHg 77%
    10:00 +24°C° 0 mm 2 mps 757 mmHg 73%
    11:00 +25°C° 0 mm 2 mps 757 mmHg 69%
    12:00 +25°C° 0 mm 2 mps 757 mmHg 65%
    13:00 +25°C° 0 mm 1 mps 757 mmHg 64%
    14:00 +26°C° 0 mm 1 mps 757 mmHg 64%
    15:00 +26°C° 0 mm 1 mps 757 mmHg 64%
    16:00 +25°C° 0 mm 1 mps 757 mmHg 68%
    17:00 +24°C° 0 mm 1 mps 757 mmHg 72%
    18:00 +24°C° 0 mm 1 mps 757 mmHg 76%
    19:00 +22°C° 0 mm 1 mps 757 mmHg 79%
    20:00 +21°C° 0 mm 1 mps 757 mmHg 82%
    21:00 +20°C° 0 mm 1 mps 757 mmHg 85%
    22:00 +20°C° 0 mm 1 mps 757 mmHg 86%
    23:00 +20°C° 0 mm 1 mps 757 mmHg 86%

    22 August, Thursday

    Time Temperature Precipitation Wind Pressure Humidity
    00:00 +19°C° 0 mm 1 mps 757 mmHg 87%
    01:00 +19°C° 0 mm 1 mps 757 mmHg 88%
    02:00 +19°C° 0 mm 1 mps 757 mmHg 89%
    03:00 +19°C° 0 mm 1 mps 757 mmHg 90%
    04:00 +19°C° 0 mm 1 mps 757 mmHg 90%
    05:00 +20°C° 0 mm 1 mps 757 mmHg 89%
    06:00 +20°C° 0 mm 1 mps 757 mmHg 88%
    07:00 +22°C° 0 mm 1 mps 757 mmHg 84%
    08:00 +23°C° 0 mm 1 mps 757 mmHg 80%
    09:00 +24°C° 0 mm 2 mps 757 mmHg 76%
    10:00 +25°C° 0.1 mm 2 mps 756 mmHg 74%
    11:00 +26°C° 0.1 mm 2 mps 756 mmHg 72%
    12:00 +27°C° 0.1 mm 2 mps 756 mmHg 70%
    13:00 +27°C° 0.2 mm 2 mps 756 mmHg 70%
    14:00 +28°C° 0.2 mm 2 mps 756 mmHg 69%
    15:00 +28°C° 0.2 mm 2 mps 756 mmHg 69%
    16:00 +27°C° 0.2 mm 2 mps 755 mmHg 74%
    17:00 +26°C° 0.2 mm 2 mps 755 mmHg 79%
    18:00 +25°C° 0.2 mm 2 mps 755 mmHg 84%
    19:00 +24°C° 0 mm 2 mps 755 mmHg 86%
    20:00 +23°C° 0 mm 2 mps 755 mmHg 89%
    21:00 +20°C° 0 mm 2 mps 755 mmHg 91%
    22:00 +20°C° 0 mm 2 mps 755 mmHg 92%
    23:00 +20°C° 0 mm 2 mps 755 mmHg 92%
    Show more